Location: Bois de la Silve
(44.4667°N, 6.7833°E)
Time: 10:43:51
(UTC+00:00)

Tsikada Rocket - Pass Details

Date: 14 July 2020
Orbit: 959 x 1008 km, 82.9° (Epoch: 06 August)

Event Time Altitude Azimuth Distance (km) Brightness Sun altitude
Rises 01:31:06 0° 352° (N) 3,745 8.0 -19.1°
Reaches altitude 10° 01:33:39 10° 353° (N) 2,794 7.2 -18.9°
Maximum altitude 01:40:06 83° 81° (E) 1,022 4.1 -18.3°
Enters shadow 01:45:05 18° 169° (S) 2,256 5.5 -17.9°
